owner,sensor,date,latitude,longitude,air_pressure(mBar),qcFlag 
TABS,ioos:station:TABS:X:1,2017-05-01T00:00:00Z,27.0660,-96.3383,1012.94,11111222 
TABS,ioos:station:TABS:X:1,2017-05-01T00:30:00Z,27.0660,-96.3383,1013.18,11111222 
TABS,ioos:station:TABS:X:1,2017-05-01T01:00:00Z,27.0660,-96.3383,1013.36,11111222 
TABS,ioos:station:TABS:X:1,2017-05-01T01:30:00Z,27.0660,-96.3383,1013.46,11111222 
TABS,ioos:station:TABS:X:1,2017-05-01T02:00:00Z,27.0660,-96.3383,1013.8,11111222 
TABS,ioos:station:TABS:X:1,2017-05-01T02:30:00Z,27.0660,-96.3383,1014.23,11111222 
TABS,ioos:station:TABS:X:1,2017-05-01T03:00:00Z,27.0660,-96.3383,1014.51,11111222 
TABS,ioos:station:TABS:X:1,2017-05-01T03:30:00Z,27.0660,-96.3383,1014.94,11111222 
TABS,ioos:station:TABS:X:1,2017-05-01T04:00:00Z,27.0660,-96.3383,1015.07,11111222 
TABS,ioos:station:TABS:X:1,2017-05-01T04:30:00Z,27.0660,-96.3383,1015.17,11111222 
TABS,ioos:station:TABS:X:1,2017-05-01T05:00:00Z,27.0660,-96.3383,1015.19,11111222 
TABS,ioos:station:TABS:X:1,2017-05-01T05:30:00Z,27.0660,-96.3383,1015.33,11111222 
TABS,ioos:station:TABS:X:1,2017-05-01T06:00:00Z,27.0660,-96.3383,1015.69,11111222 
TABS,ioos:station:TABS:X:1,2017-05-01T06:30:00Z,27.0660,-96.3383,1015.7,11111222 
TABS,ioos:station:TABS:X:1,2017-05-01T07:00:00Z,27.0660,-96.3383,1015.66,11111222 
TABS,ioos:station:TABS:X:1,2017-05-01T07:30:00Z,27.0660,-96.3383,1015.61,11111222 
TABS,ioos:station:TABS:X:1,2017-05-01T08:00:00Z,27.0660,-96.3383,1015.35,11111222 
TABS,ioos:station:TABS:X:1,2017-05-01T08:30:00Z,27.0660,-96.3383,1015.44,11111222 
TABS,ioos:station:TABS:X:1,2017-05-01T09:00:00Z,27.0660,-96.3383,1015.9,11111222 
TABS,ioos:station:TABS:X:1,2017-05-01T09:30:00Z,27.0660,-96.3383,1015.85,11111222 
TABS,ioos:station:TABS:X:1,2017-05-01T10:00:00Z,27.0660,-96.3383,1015.61,11111222 
TABS,ioos:station:TABS:X:1,2017-05-01T10:30:00Z,27.0660,-96.3383,1015.74,11111222 
TABS,ioos:station:TABS:X:1,2017-05-01T11:00:00Z,27.0660,-96.3383,1015.76,11111222 
TABS,ioos:station:TABS:X:1,2017-05-01T11:30:00Z,27.0660,-96.3383,1015.96,11111222 
TABS,ioos:station:TABS:X:1,2017-05-01T12:00:00Z,27.0660,-96.3383,1016.52,11111222 
TABS,ioos:station:TABS:X:1,2017-05-01T12:30:00Z,27.0660,-96.3383,1016.41,11111222 
TABS,ioos:station:TABS:X:1,2017-05-01T13:00:00Z,27.0660,-96.3383,1016.93,11111222 
TABS,ioos:station:TABS:X:1,2017-05-01T13:30:00Z,27.0660,-96.3383,1017.12,11111222 
TABS,ioos:station:TABS:X:1,2017-05-01T14:00:00Z,27.0660,-96.3383,1017.21,11111222 
TABS,ioos:station:TABS:X:1,2017-05-01T14:30:00Z,27.0660,-96.3383,1017.5,11111222 
TABS,ioos:station:TABS:X:1,2017-05-01T15:00:00Z,27.0660,-96.3383,1017.31,11111222 
TABS,ioos:station:TABS:X:1,2017-05-01T15:30:00Z,27.0660,-96.3383,1017.22,11111222 
TABS,ioos:station:TABS:X:1,2017-05-01T16:00:00Z,27.0660,-96.3383,1016.84,11111222 
TABS,ioos:station:TABS:X:1,2017-05-01T16:30:00Z,27.0660,-96.3383,1017.06,11111222 
TABS,ioos:station:TABS:X:1,2017-05-01T17:00:00Z,27.0660,-96.3383,1016.65,11111222 
TABS,ioos:station:TABS:X:1,2017-05-01T17:30:00Z,27.0660,-96.3383,1016.58,11111222 
TABS,ioos:station:TABS:X:1,2017-05-01T18:00:00Z,27.0660,-96.3383,1016.49,11111222 
TABS,ioos:station:TABS:X:1,2017-05-01T18:30:00Z,27.0660,-96.3383,1015.93,11111222 
TABS,ioos:station:TABS:X:1,2017-05-01T19:00:00Z,27.0660,-96.3383,1015.65,11111222 
TABS,ioos:station:TABS:X:1,2017-05-01T19:30:00Z,27.0660,-96.3383,1015.63,11111222 
TABS,ioos:station:TABS:X:1,2017-05-01T20:00:00Z,27.0660,-96.3383,1015.49,11111222 
TABS,ioos:station:TABS:X:1,2017-05-01T20:30:00Z,27.0660,-96.3383,1014.94,11111222 
TABS,ioos:station:TABS:X:1,2017-05-01T21:00:00Z,27.0660,-96.3383,1014.71,11111222 
TABS,ioos:station:TABS:X:1,2017-05-01T21:30:00Z,27.0660,-96.3383,1014.58,11111222 
TABS,ioos:station:TABS:X:1,2017-05-01T22:00:00Z,27.0660,-96.3383,1014.04,11111222 
TABS,ioos:station:TABS:X:1,2017-05-01T22:30:00Z,27.0660,-96.3383,1013.8,11111222 
TABS,ioos:station:TABS:X:1,2017-05-01T23:00:00Z,27.0660,-96.3383,1013.73,11111222 
TABS,ioos:station:TABS:X:1,2017-05-01T23:30:00Z,27.0660,-96.3383,1013.62,11111222 
TABS,ioos:station:TABS:X:1,2017-05-02T00:00:00Z,27.0660,-96.3383,1013.49,11111222 
TABS,ioos:station:TABS:X:1,2017-05-02T00:30:00Z,27.0660,-96.3383,1013.67,11111222 
TABS,ioos:station:TABS:X:1,2017-05-02T01:00:00Z,27.0660,-96.3383,1013.7,11111222 
TABS,ioos:station:TABS:X:1,2017-05-02T01:30:00Z,27.0660,-96.3383,1014.0,11111222 
TABS,ioos:station:TABS:X:1,2017-05-02T02:00:00Z,27.0660,-96.3383,1014.13,11111222 
TABS,ioos:station:TABS:X:1,2017-05-02T02:30:00Z,27.0660,-96.3383,1014.28,11111222 
TABS,ioos:station:TABS:X:1,2017-05-02T03:00:00Z,27.0660,-96.3383,1014.75,11111222 
TABS,ioos:station:TABS:X:1,2017-05-02T03:30:00Z,27.0660,-96.3383,1014.81,11111222 
TABS,ioos:station:TABS:X:1,2017-05-02T04:00:00Z,27.0660,-96.3383,1014.77,11111222 
TABS,ioos:station:TABS:X:1,2017-05-02T04:30:00Z,27.0660,-96.3383,1014.65,11111222 
TABS,ioos:station:TABS:X:1,2017-05-02T05:00:00Z,27.0660,-96.3383,1014.76,11111222 
TABS,ioos:station:TABS:X:1,2017-05-02T05:30:00Z,27.0660,-96.3383,1014.7,11111222 
TABS,ioos:station:TABS:X:1,2017-05-02T06:00:00Z,27.0660,-96.3383,1014.66,11111222 
TABS,ioos:station:TABS:X:1,2017-05-02T06:30:00Z,27.0660,-96.3383,1014.52,11111222 
TABS,ioos:station:TABS:X:1,2017-05-02T07:00:00Z,27.0660,-96.3383,1014.42,11111222 
TABS,ioos:station:TABS:X:1,2017-05-02T07:30:00Z,27.0660,-96.3383,1014.17,11111222 
TABS,ioos:station:TABS:X:1,2017-05-02T08:00:00Z,27.0660,-96.3383,1014.04,11111222 
TABS,ioos:station:TABS:X:1,2017-05-02T08:30:00Z,27.0660,-96.3383,1013.96,11111222 
TABS,ioos:station:TABS:X:1,2017-05-02T09:00:00Z,27.0660,-96.3383,1013.87,11111222 
TABS,ioos:station:TABS:X:1,2017-05-02T09:30:00Z,27.0660,-96.3383,1013.86,11111222 
TABS,ioos:station:TABS:X:1,2017-05-02T10:00:00Z,27.0660,-96.3383,1014.42,11111222 
TABS,ioos:station:TABS:X:1,2017-05-02T10:30:00Z,27.0660,-96.3383,1014.47,11111222 
TABS,ioos:station:TABS:X:1,2017-05-02T11:00:00Z,27.0660,-96.3383,1013.92,11111222 
TABS,ioos:station:TABS:X:1,2017-05-02T11:30:00Z,27.0660,-96.3383,1014.28,11111222 
TABS,ioos:station:TABS:X:1,2017-05-02T12:00:00Z,27.0660,-96.3383,1014.45,11111222 
TABS,ioos:station:TABS:X:1,2017-05-02T12:30:00Z,27.0660,-96.3383,1014.74,11111222 
TABS,ioos:station:TABS:X:1,2017-05-02T13:00:00Z,27.0660,-96.3383,1014.66,11111222 
TABS,ioos:station:TABS:X:1,2017-05-02T13:30:00Z,27.0660,-96.3383,1014.47,11111222 
TABS,ioos:station:TABS:X:1,2017-05-02T14:00:00Z,27.0660,-96.3383,1014.35,11111222 
TABS,ioos:station:TABS:X:1,2017-05-02T14:30:00Z,27.0660,-96.3383,1014.72,11111222 
TABS,ioos:station:TABS:X:1,2017-05-02T15:00:00Z,27.0660,-96.3383,1014.49,11111222 
TABS,ioos:station:TABS:X:1,2017-05-02T15:30:00Z,27.0660,-96.3383,1014.96,11111222 
TABS,ioos:station:TABS:X:1,2017-05-02T16:00:00Z,27.0660,-96.3383,1014.98,11111222 
TABS,ioos:station:TABS:X:1,2017-05-02T16:30:00Z,27.0660,-96.3383,1014.74,11111222 
TABS,ioos:station:TABS:X:1,2017-05-02T17:00:00Z,27.0660,-96.3383,1014.42,11111222 
TABS,ioos:station:TABS:X:1,2017-05-02T17:30:00Z,27.0660,-96.3383,1014.14,11111222 
TABS,ioos:station:TABS:X:1,2017-05-02T18:00:00Z,27.0660,-96.3383,1013.99,11111222 
TABS,ioos:station:TABS:X:1,2017-05-02T18:30:00Z,27.0660,-96.3383,1013.85,11111222 
TABS,ioos:station:TABS:X:1,2017-05-02T19:00:00Z,27.0660,-96.3383,1013.46,11111222 
TABS,ioos:station:TABS:X:1,2017-05-02T19:30:00Z,27.0660,-96.3383,1012.84,11111222 
TABS,ioos:station:TABS:X:1,2017-05-02T20:00:00Z,27.0660,-96.3383,1012.43,11111222 
TABS,ioos:station:TABS:X:1,2017-05-02T20:30:00Z,27.0660,-96.3383,1012.05,11111222 
TABS,ioos:station:TABS:X:1,2017-05-02T21:00:00Z,27.0660,-96.3383,1011.72,11111222 
TABS,ioos:station:TABS:X:1,2017-05-02T21:30:00Z,27.0660,-96.3383,1011.41,11111222 
TABS,ioos:station:TABS:X:1,2017-05-02T22:00:00Z,27.0660,-96.3383,1011.05,11111222 
TABS,ioos:station:TABS:X:1,2017-05-02T22:30:00Z,27.0660,-96.3383,1010.84,11111222 
TABS,ioos:station:TABS:X:1,2017-05-02T23:00:00Z,27.0660,-96.3383,1010.2,11111222 
TABS,ioos:station:TABS:X:1,2017-05-02T23:30:00Z,27.0660,-96.3383,1010.13,11111222 
TABS,ioos:station:TABS:X:1,2017-05-03T00:00:00Z,27.0660,-96.3383,1010.25,11111222 
TABS,ioos:station:TABS:X:1,2017-05-03T00:30:00Z,27.0660,-96.3383,1010.16,11111222 
TABS,ioos:station:TABS:X:1,2017-05-03T01:00:00Z,27.0660,-96.3383,1010.56,11111222 
TABS,ioos:station:TABS:X:1,2017-05-03T01:30:00Z,27.0660,-96.3383,1010.81,11111222 
TABS,ioos:station:TABS:X:1,2017-05-03T02:00:00Z,27.0660,-96.3383,1011.17,11111222 
TABS,ioos:station:TABS:X:1,2017-05-03T02:30:00Z,27.0660,-96.3383,1011.26,11111222 
TABS,ioos:station:TABS:X:1,2017-05-03T03:00:00Z,27.0660,-96.3383,1011.41,11111222 
TABS,ioos:station:TABS:X:1,2017-05-03T03:30:00Z,27.0660,-96.3383,1011.45,11111222 
TABS,ioos:station:TABS:X:1,2017-05-03T04:00:00Z,27.0660,-96.3383,1011.44,11111222 
TABS,ioos:station:TABS:X:1,2017-05-03T04:30:00Z,27.0660,-96.3383,1011.43,11111222 
TABS,ioos:station:TABS:X:1,2017-05-03T05:00:00Z,27.0660,-96.3383,1011.11,11111222 
TABS,ioos:station:TABS:X:1,2017-05-03T05:30:00Z,27.0660,-96.3383,1010.74,11111222 
TABS,ioos:station:TABS:X:1,2017-05-03T06:00:00Z,27.0660,-96.3383,1010.42,11111222 
TABS,ioos:station:TABS:X:1,2017-05-03T06:30:00Z,27.0660,-96.3383,1010.32,11111222 
TABS,ioos:station:TABS:X:1,2017-05-03T07:00:00Z,27.0660,-96.3383,1009.98,11111222 
TABS,ioos:station:TABS:X:1,2017-05-03T07:30:00Z,27.0660,-96.3383,1009.41,11111222 
TABS,ioos:station:TABS:X:1,2017-05-03T08:00:00Z,27.0660,-96.3383,1009.07,11111222 
TABS,ioos:station:TABS:X:1,2017-05-03T08:30:00Z,27.0660,-96.3383,1009.06,11111222 
TABS,ioos:station:TABS:X:1,2017-05-03T09:00:00Z,27.0660,-96.3383,1008.85,11111222 
TABS,ioos:station:TABS:X:1,2017-05-03T09:30:00Z,27.0660,-96.3383,1009.06,11111222 
TABS,ioos:station:TABS:X:1,2017-05-03T10:00:00Z,27.0660,-96.3383,1008.79,11111222 
TABS,ioos:station:TABS:X:1,2017-05-03T10:30:00Z,27.0660,-96.3383,1009.11,11111222 
TABS,ioos:station:TABS:X:1,2017-05-03T11:00:00Z,27.0660,-96.3383,1009.31,11111222 
TABS,ioos:station:TABS:X:1,2017-05-03T11:30:00Z,27.0660,-96.3383,1008.39,11111222 
TABS,ioos:station:TABS:X:1,2017-05-03T12:00:00Z,27.0660,-96.3383,1008.43,11111222 
TABS,ioos:station:TABS:X:1,2017-05-03T12:30:00Z,27.0660,-96.3383,1009.32,11111222 
TABS,ioos:station:TABS:X:1,2017-05-03T13:00:00Z,27.0660,-96.3383,1009.76,11111222 
TABS,ioos:station:TABS:X:1,2017-05-03T13:30:00Z,27.0660,-96.3383,1008.89,11111222 
TABS,ioos:station:TABS:X:1,2017-05-03T14:00:00Z,27.0660,-96.3383,1008.84,11111222 
TABS,ioos:station:TABS:X:1,2017-05-03T14:30:00Z,27.0660,-96.3383,1008.63,11111222 
TABS,ioos:station:TABS:X:1,2017-05-03T15:00:00Z,27.0660,-96.3383,1009.4,11111222 
TABS,ioos:station:TABS:X:1,2017-05-03T15:30:00Z,27.0660,-96.3383,1009.51,11111222 
TABS,ioos:station:TABS:X:1,2017-05-03T16:00:00Z,27.0660,-96.3383,1009.4,11111222 
TABS,ioos:station:TABS:X:1,2017-05-03T16:30:00Z,27.0660,-96.3383,1009.17,11111222 
TABS,ioos:station:TABS:X:1,2017-05-03T17:00:00Z,27.0660,-96.3383,1008.92,11111222 
TABS,ioos:station:TABS:X:1,2017-05-03T17:30:00Z,27.0660,-96.3383,1008.67,11111222 
TABS,ioos:station:TABS:X:1,2017-05-03T18:00:00Z,27.0660,-96.3383,1008.36,11111222 
TABS,ioos:station:TABS:X:1,2017-05-03T18:30:00Z,27.0660,-96.3383,1007.43,11111222 
TABS,ioos:station:TABS:X:1,2017-05-03T19:00:00Z,27.0660,-96.3383,1007.17,11111222 
TABS,ioos:station:TABS:X:1,2017-05-03T19:30:00Z,27.0660,-96.3383,1006.96,11111222 
TABS,ioos:station:TABS:X:1,2017-05-03T20:00:00Z,27.0660,-96.3383,1007.09,11111222 
TABS,ioos:station:TABS:X:1,2017-05-03T20:30:00Z,27.0660,-96.3383,1006.67,11111222 
TABS,ioos:station:TABS:X:1,2017-05-03T21:00:00Z,27.0660,-96.3383,1006.76,11111222 
TABS,ioos:station:TABS:X:1,2017-05-03T21:30:00Z,27.0660,-96.3383,1006.44,11111222 
TABS,ioos:station:TABS:X:1,2017-05-03T22:00:00Z,27.0660,-96.3383,1006.76,11111222 
TABS,ioos:station:TABS:X:1,2017-05-03T22:30:00Z,27.0660,-96.3383,1006.39,11111222 
TABS,ioos:station:TABS:X:1,2017-05-03T23:00:00Z,27.0660,-96.3383,1006.31,11111222 
TABS,ioos:station:TABS:X:1,2017-05-03T23:30:00Z,27.0660,-96.3383,1006.74,11111222 
TABS,ioos:station:TABS:X:1,2017-05-04T00:00:00Z,27.0660,-96.3383,1006.64,11111222 
TABS,ioos:station:TABS:X:1,2017-05-04T00:30:00Z,27.0660,-96.3383,1006.89,11111222 
TABS,ioos:station:TABS:X:1,2017-05-04T01:00:00Z,27.0660,-96.3383,1007.29,11111222 
TABS,ioos:station:TABS:X:1,2017-05-04T01:30:00Z,27.0660,-96.3383,1007.34,11111222 
TABS,ioos:station:TABS:X:1,2017-05-04T02:00:00Z,27.0660,-96.3383,1007.82,11111222 
TABS,ioos:station:TABS:X:1,2017-05-04T02:30:00Z,27.0660,-96.3383,1008.34,11111222 
TABS,ioos:station:TABS:X:1,2017-05-04T03:00:00Z,27.0660,-96.3383,1008.9,11111222 
TABS,ioos:station:TABS:X:1,2017-05-04T03:30:00Z,27.0660,-96.3383,1009.21,11111222 
TABS,ioos:station:TABS:X:1,2017-05-04T04:00:00Z,27.0660,-96.3383,1008.89,11111222 
TABS,ioos:station:TABS:X:1,2017-05-04T04:30:00Z,27.0660,-96.3383,1009.58,11111222 
TABS,ioos:station:TABS:X:1,2017-05-04T05:00:00Z,27.0660,-96.3383,1009.65,11111222 
TABS,ioos:station:TABS:X:1,2017-05-04T05:30:00Z,27.0660,-96.3383,1010.98,11111222 
TABS,ioos:station:TABS:X:1,2017-05-04T06:00:00Z,27.0660,-96.3383,1010.77,11111222 
TABS,ioos:station:TABS:X:1,2017-05-04T06:30:00Z,27.0660,-96.3383,1010.31,11111222 
TABS,ioos:station:TABS:X:1,2017-05-04T07:00:00Z,27.0660,-96.3383,1012.13,11111222 
TABS,ioos:station:TABS:X:1,2017-05-04T07:30:00Z,27.0660,-96.3383,1011.44,11111222 
TABS,ioos:station:TABS:X:1,2017-05-04T08:00:00Z,27.0660,-96.3383,1012.34,11111222 
TABS,ioos:station:TABS:X:1,2017-05-04T08:30:00Z,27.0660,-96.3383,1011.83,11111222 
TABS,ioos:station:TABS:X:1,2017-05-04T09:00:00Z,27.0660,-96.3383,1010.14,11111222 
TABS,ioos:station:TABS:X:1,2017-05-04T09:30:00Z,27.0660,-96.3383,1012.57,11111222 
TABS,ioos:station:TABS:X:1,2017-05-04T10:00:00Z,27.0660,-96.3383,1013.11,11111222 
TABS,ioos:station:TABS:X:1,2017-05-04T10:30:00Z,27.0660,-96.3383,1013.52,11111222 
TABS,ioos:station:TABS:X:1,2017-05-04T11:00:00Z,27.0660,-96.3383,1013.51,11111222 
TABS,ioos:station:TABS:X:1,2017-05-04T11:30:00Z,27.0660,-96.3383,1014.34,11111222 
TABS,ioos:station:TABS:X:1,2017-05-04T12:00:00Z,27.0660,-96.3383,1015.58,11111222 
TABS,ioos:station:TABS:X:1,2017-05-04T12:30:00Z,27.0660,-96.3383,1016.04,11111222 
TABS,ioos:station:TABS:X:1,2017-05-04T13:00:00Z,27.0660,-96.3383,1016.56,11111222 
TABS,ioos:station:TABS:X:1,2017-05-04T13:30:00Z,27.0660,-96.3383,1017.19,11111222 
TABS,ioos:station:TABS:X:1,2017-05-04T14:00:00Z,27.0660,-96.3383,1017.71,11111222 
TABS,ioos:station:TABS:X:1,2017-05-04T14:30:00Z,27.0660,-96.3383,1017.01,11111222 
TABS,ioos:station:TABS:X:1,2017-05-04T15:00:00Z,27.0660,-96.3383,1017.81,11111222 
TABS,ioos:station:TABS:X:1,2017-05-04T15:30:00Z,27.0660,-96.3383,1018.05,11111222 
TABS,ioos:station:TABS:X:1,2017-05-04T16:00:00Z,27.0660,-96.3383,1017.3,11111222 
TABS,ioos:station:TABS:X:1,2017-05-04T16:30:00Z,27.0660,-96.3383,1017.54,11111222 
TABS,ioos:station:TABS:X:1,2017-05-04T17:00:00Z,27.0660,-96.3383,1016.92,11111222 
TABS,ioos:station:TABS:X:1,2017-05-04T17:30:00Z,27.0660,-96.3383,1016.54,11111222 
TABS,ioos:station:TABS:X:1,2017-05-04T18:00:00Z,27.0660,-96.3383,1015.99,11111222 
TABS,ioos:station:TABS:X:1,2017-05-04T18:30:00Z,27.0660,-96.3383,1015.82,11111222 
TABS,ioos:station:TABS:X:1,2017-05-04T19:00:00Z,27.0660,-96.3383,1015.86,11111222 
TABS,ioos:station:TABS:X:1,2017-05-04T19:30:00Z,27.0660,-96.3383,1015.96,11111222 
TABS,ioos:station:TABS:X:1,2017-05-04T20:00:00Z,27.0660,-96.3383,1016.18,11111222 
TABS,ioos:station:TABS:X:1,2017-05-04T20:30:00Z,27.0660,-96.3383,1015.84,11111222 
TABS,ioos:station:TABS:X:1,2017-05-04T21:00:00Z,27.0660,-96.3383,1015.54,11111222 
TABS,ioos:station:TABS:X:1,2017-05-04T21:30:00Z,27.0660,-96.3383,1015.23,11111222 
TABS,ioos:station:TABS:X:1,2017-05-04T22:00:00Z,27.0660,-96.3383,1015.42,11111222 
TABS,ioos:station:TABS:X:1,2017-05-04T22:30:00Z,27.0660,-96.3383,1015.45,11111222 
TABS,ioos:station:TABS:X:1,2017-05-04T23:00:00Z,27.0660,-96.3383,1015.52,11111222 
TABS,ioos:station:TABS:X:1,2017-05-04T23:30:00Z,27.0660,-96.3383,1015.62,11111222 
TABS,ioos:station:TABS:X:1,2017-05-05T00:00:00Z,27.0660,-96.3383,1015.53,11111222 
TABS,ioos:station:TABS:X:1,2017-05-05T00:30:00Z,27.0660,-96.3383,1015.82,11111222 
TABS,ioos:station:TABS:X:1,2017-05-05T01:00:00Z,27.0660,-96.3383,1016.34,11111222 
TABS,ioos:station:TABS:X:1,2017-05-05T01:30:00Z,27.0660,-96.3383,1016.91,11111222 
TABS,ioos:station:TABS:X:1,2017-05-05T02:00:00Z,27.0660,-96.3383,1017.07,11111222 
TABS,ioos:station:TABS:X:1,2017-05-05T02:30:00Z,27.0660,-96.3383,1017.11,11111222 
TABS,ioos:station:TABS:X:1,2017-05-05T03:00:00Z,27.0660,-96.3383,1017.42,11111222 
TABS,ioos:station:TABS:X:1,2017-05-05T03:30:00Z,27.0660,-96.3383,1017.36,11111222 
TABS,ioos:station:TABS:X:1,2017-05-05T04:00:00Z,27.0660,-96.3383,1017.59,11111222 
TABS,ioos:station:TABS:X:1,2017-05-05T04:30:00Z,27.0660,-96.3383,1017.32,11111222 
TABS,ioos:station:TABS:X:1,2017-05-05T05:00:00Z,27.0660,-96.3383,1017.28,11111222 
TABS,ioos:station:TABS:X:1,2017-05-05T05:30:00Z,27.0660,-96.3383,1017.08,11111222 
TABS,ioos:station:TABS:X:1,2017-05-05T06:00:00Z,27.0660,-96.3383,1017.17,11111222 
TABS,ioos:station:TABS:X:1,2017-05-05T06:30:00Z,27.0660,-96.3383,1016.58,11111222 
TABS,ioos:station:TABS:X:1,2017-05-05T07:00:00Z,27.0660,-96.3383,1016.37,11111222 
TABS,ioos:station:TABS:X:1,2017-05-05T07:30:00Z,27.0660,-96.3383,1016.13,11111222 
TABS,ioos:station:TABS:X:1,2017-05-05T08:00:00Z,27.0660,-96.3383,1015.96,11111222 
TABS,ioos:station:TABS:X:1,2017-05-05T08:30:00Z,27.0660,-96.3383,1016.06,11111222 
TABS,ioos:station:TABS:X:1,2017-05-05T09:00:00Z,27.0660,-96.3383,1016.23,11111222 
TABS,ioos:station:TABS:X:1,2017-05-05T09:30:00Z,27.0660,-96.3383,1016.31,11111222 
TABS,ioos:station:TABS:X:1,2017-05-05T10:00:00Z,27.0660,-96.3383,1016.33,11111222 
TABS,ioos:station:TABS:X:1,2017-05-05T10:30:00Z,27.0660,-96.3383,1016.69,11111222 
TABS,ioos:station:TABS:X:1,2017-05-05T11:00:00Z,27.0660,-96.3383,1016.75,11111222 
TABS,ioos:station:TABS:X:1,2017-05-05T11:30:00Z,27.0660,-96.3383,1017.16,11111222 
TABS,ioos:station:TABS:X:1,2017-05-05T12:00:00Z,27.0660,-96.3383,1017.55,11111222 
TABS,ioos:station:TABS:X:1,2017-05-05T12:30:00Z,27.0660,-96.3383,1017.85,11111222 
TABS,ioos:station:TABS:X:1,2017-05-05T13:00:00Z,27.0660,-96.3383,1018.12,11111222 
TABS,ioos:station:TABS:X:1,2017-05-05T13:30:00Z,27.0660,-96.3383,1018.44,11111222 
TABS,ioos:station:TABS:X:1,2017-05-05T14:00:00Z,27.0660,-96.3383,1018.63,11111222 
TABS,ioos:station:TABS:X:1,2017-05-05T14:30:00Z,27.0660,-96.3383,1018.89,11111222 
TABS,ioos:station:TABS:X:1,2017-05-05T15:00:00Z,27.0660,-96.3383,1018.94,11111222 
TABS,ioos:station:TABS:X:1,2017-05-05T15:30:00Z,27.0660,-96.3383,1019.1,11111222 
TABS,ioos:station:TABS:X:1,2017-05-05T16:00:00Z,27.0660,-96.3383,1019.13,11111222 
TABS,ioos:station:TABS:X:1,2017-05-05T16:30:00Z,27.0660,-96.3383,1018.95,11111222 
TABS,ioos:station:TABS:X:1,2017-05-05T17:00:00Z,27.0660,-96.3383,1018.69,11111222 
TABS,ioos:station:TABS:X:1,2017-05-05T17:30:00Z,27.0660,-96.3383,1018.62,11111222 
TABS,ioos:station:TABS:X:1,2017-05-05T18:00:00Z,27.0660,-96.3383,1018.51,11111222 
TABS,ioos:station:TABS:X:1,2017-05-05T18:30:00Z,27.0660,-96.3383,1018.18,11111222 
TABS,ioos:station:TABS:X:1,2017-05-05T19:00:00Z,27.0660,-96.3383,1017.84,11111222 
TABS,ioos:station:TABS:X:1,2017-05-05T19:30:00Z,27.0660,-96.3383,1017.4,11111222 
TABS,ioos:station:TABS:X:1,2017-05-05T20:00:00Z,27.0660,-96.3383,1017.26,11111222 
TABS,ioos:station:TABS:X:1,2017-05-05T20:30:00Z,27.0660,-96.3383,1016.77,11111222 
TABS,ioos:station:TABS:X:1,2017-05-05T21:00:00Z,27.0660,-96.3383,1016.33,11111222 
TABS,ioos:station:TABS:X:1,2017-05-05T21:30:00Z,27.0660,-96.3383,1015.96,11111222 
TABS,ioos:station:TABS:X:1,2017-05-05T22:00:00Z,27.0660,-96.3383,1015.54,11111222 
TABS,ioos:station:TABS:X:1,2017-05-05T22:30:00Z,27.0660,-96.3383,1015.25,11111222 
TABS,ioos:station:TABS:X:1,2017-05-05T23:00:00Z,27.0660,-96.3383,1014.8,11111222 
TABS,ioos:station:TABS:X:1,2017-05-05T23:30:00Z,27.0660,-96.3383,1014.68,11111222 
TABS,ioos:station:TABS:X:1,2017-05-06T00:00:00Z,27.0660,-96.3383,1014.49,11111222 
TABS,ioos:station:TABS:X:1,2017-05-06T00:30:00Z,27.0660,-96.3383,1014.74,11111222 
TABS,ioos:station:TABS:X:1,2017-05-06T01:00:00Z,27.0660,-96.3383,1014.91,11111222 
TABS,ioos:station:TABS:X:1,2017-05-06T01:30:00Z,27.0660,-96.3383,1015.02,11111222 
TABS,ioos:station:TABS:X:1,2017-05-06T02:00:00Z,27.0660,-96.3383,1015.16,11111222 
TABS,ioos:station:TABS:X:1,2017-05-06T02:30:00Z,27.0660,-96.3383,1015.57,11111222 
TABS,ioos:station:TABS:X:1,2017-05-06T03:00:00Z,27.0660,-96.3383,1015.82,11111222 
TABS,ioos:station:TABS:X:1,2017-05-06T03:30:00Z,27.0660,-96.3383,1015.89,11111222 
TABS,ioos:station:TABS:X:1,2017-05-06T04:00:00Z,27.0660,-96.3383,1015.99,11111222 
TABS,ioos:station:TABS:X:1,2017-05-06T04:30:00Z,27.0660,-96.3383,1015.96,11111222 
TABS,ioos:station:TABS:X:1,2017-05-06T05:00:00Z,27.0660,-96.3383,1015.85,11111222 
TABS,ioos:station:TABS:X:1,2017-05-06T05:30:00Z,27.0660,-96.3383,1015.73,11111222 
TABS,ioos:station:TABS:X:1,2017-05-06T06:00:00Z,27.0660,-96.3383,1015.62,11111222 
TABS,ioos:station:TABS:X:1,2017-05-06T06:30:00Z,27.0660,-96.3383,1015.71,11111222 
TABS,ioos:station:TABS:X:1,2017-05-06T07:00:00Z,27.0660,-96.3383,1015.67,11111222 
TABS,ioos:station:TABS:X:1,2017-05-06T07:30:00Z,27.0660,-96.3383,1015.59,11111222 
TABS,ioos:station:TABS:X:1,2017-05-06T08:00:00Z,27.0660,-96.3383,1015.5,11111222 
TABS,ioos:station:TABS:X:1,2017-05-06T08:30:00Z,27.0660,-96.3383,1015.34,11111222 
TABS,ioos:station:TABS:X:1,2017-05-06T09:00:00Z,27.0660,-96.3383,1015.36,11111222 
TABS,ioos:station:TABS:X:1,2017-05-06T09:30:00Z,27.0660,-96.3383,1015.25,11111222 
TABS,ioos:station:TABS:X:1,2017-05-06T10:00:00Z,27.0660,-96.3383,1015.33,11111222 
TABS,ioos:station:TABS:X:1,2017-05-06T10:30:00Z,27.0660,-96.3383,1015.56,11111222 
TABS,ioos:station:TABS:X:1,2017-05-06T11:00:00Z,27.0660,-96.3383,1015.63,11111222 
TABS,ioos:station:TABS:X:1,2017-05-06T11:30:00Z,27.0660,-96.3383,1015.97,11111222 
TABS,ioos:station:TABS:X:1,2017-05-06T12:00:00Z,27.0660,-96.3383,1016.27,11111222 
TABS,ioos:station:TABS:X:1,2017-05-06T12:30:00Z,27.0660,-96.3383,1016.52,11111222 
TABS,ioos:station:TABS:X:1,2017-05-06T13:00:00Z,27.0660,-96.3383,1016.73,11111222 
TABS,ioos:station:TABS:X:1,2017-05-06T13:30:00Z,27.0660,-96.3383,1016.91,11111222 
TABS,ioos:station:TABS:X:1,2017-05-06T14:00:00Z,27.0660,-96.3383,1016.89,11111222 
TABS,ioos:station:TABS:X:1,2017-05-06T14:30:00Z,27.0660,-96.3383,1017.04,11111222 
TABS,ioos:station:TABS:X:1,2017-05-06T15:00:00Z,27.0660,-96.3383,1017.43,11111222 
TABS,ioos:station:TABS:X:1,2017-05-06T15:30:00Z,27.0660,-96.3383,1017.54,11111222 
TABS,ioos:station:TABS:X:1,2017-05-06T16:00:00Z,27.0660,-96.3383,1017.47,11111222 
TABS,ioos:station:TABS:X:1,2017-05-06T16:30:00Z,27.0660,-96.3383,1017.28,11111222 
TABS,ioos:station:TABS:X:1,2017-05-06T17:00:00Z,27.0660,-96.3383,1017.1,11111222 
TABS,ioos:station:TABS:X:1,2017-05-06T17:30:00Z,27.0660,-96.3383,1016.9,11111222 
TABS,ioos:station:TABS:X:1,2017-05-06T18:00:00Z,27.0660,-96.3383,1016.67,11111222 
TABS,ioos:station:TABS:X:1,2017-05-06T18:30:00Z,27.0660,-96.3383,1016.4,11111222 
TABS,ioos:station:TABS:X:1,2017-05-06T19:00:00Z,27.0660,-96.3383,1016.21,11111222 
TABS,ioos:station:TABS:X:1,2017-05-06T19:30:00Z,27.0660,-96.3383,1015.85,11111222 
TABS,ioos:station:TABS:X:1,2017-05-06T20:00:00Z,27.0660,-96.3383,1015.32,11111222 
TABS,ioos:station:TABS:X:1,2017-05-06T20:30:00Z,27.0660,-96.3383,1015.02,11111222 
TABS,ioos:station:TABS:X:1,2017-05-06T21:00:00Z,27.0660,-96.3383,1014.75,11111222 
TABS,ioos:station:TABS:X:1,2017-05-06T21:30:00Z,27.0660,-96.3383,1014.37,11111222 
TABS,ioos:station:TABS:X:1,2017-05-06T22:00:00Z,27.0660,-96.3383,1014.2,11111222 
TABS,ioos:station:TABS:X:1,2017-05-06T22:30:00Z,27.0660,-96.3383,1014.26,11111222 
TABS,ioos:station:TABS:X:1,2017-05-06T23:00:00Z,27.0660,-96.3383,1014.02,11111222 
TABS,ioos:station:TABS:X:1,2017-05-06T23:30:00Z,27.0660,-96.3383,1013.82,11111222 